Weather Roundup
Issued by NWS

Home | Current Version | Previous Version | Text Only | Print | Product List | Glossary On
Versions: 1 2 3 4 5 6 7 8 9 10 11 12 13 14 15 16 17 18 19 20 21 22 23 24 25 26 27 28 29 30 31 32 33 34 35 36 37 38 39 40 41 42 43 44 45 46 47 48 49 50
000
NZUS93 KARX 021759
HRRWXR

CURRENT HOURLY OBSERVATIONS ACROSS
MUCH OF THE UPPER MISSISSIPPI VALLEY
NATIONAL WEATHER SERVICE LA CROSSE WI
100 PM CDT TUE JUN 02 2015


...SOUTHEAST MINNESOTA...


CITY           SKY/WX    TMP DP  RH WIND       PRES   REMARKS
ROCHESTER      PTSUNNY   69  53  56 S15G25    30.08S
ROCHESTER/MAYO CLOUDY    68  52  56 SE13G20   30.07F
WINONA         MOSUNNY   73  54  49 S5        30.07F
AUSTIN         CLOUDY    66  55  68 S15G21    30.06S
ALBERT LEA     PTSUNNY   72  54  53 S18G30    30.04F
DODGE CENTER   PTSUNNY   70  54  56 S18G24    30.06F
PRESTON        PTSUNNY   67  52  58 SE12      30.09S
OWATONNA       CLOUDY    72  54  53 S16G25    30.05S
FARIBAULT      CLOUDY    72  54  53 S13G21    30.04S
$$

...ELSEWHERE IN MINNESOTA...


CITY           SKY/WX    TMP DP  RH WIND       PRES   REMARKS
MINNEAPOLIS    PTSUNNY   72  53  51 S12       30.03S
INTNL FALLS    CLOUDY    58  52  80 S5        29.91F
DULUTH         MOSUNNY   70  48  45 S15       30.01F
RED WING       MOSUNNY   73  52  46 S12       30.04F
REDWOOD FALLS  PTSUNNY   75  53  46 SE23G31   29.94F
MANKATO        CLOUDY    72  54  53 S12       30.02S
WORTHINGTON    MOSUNNY   75  54  46 S18G25    29.97F
FAIRMONT       MOSUNNY   72  52  49 S20G28    30.00F
$$

...SOUTHWEST WISCONSIN...


CITY           SKY/WX    TMP DP  RH WIND       PRES   REMARKS
LA CROSSE      SUNNY     72  51  47 S9        30.08F
PRAIRIE DU CHI PTSUNNY   68  50  52 S3        30.10F
BOSCOBEL       PTSUNNY   71  50  47 VRB3      30.11F
LONE ROCK      NOT AVBL
PLATTEVILLE    MOSUNNY   67  50  55 SE9       30.13S
FORT MC COY    SUNNY     70  43  37 S8        30.11F
VIROQUA        FAIR      68  50  52 SE7       30.12F
WIS DELLS      NOT AVBL
$$

...ELSEWHERE IN WISCONSIN...


CITY           SKY/WX    TMP DP  RH WIND       PRES   REMARKS
MILWAUKEE      MOSUNNY   62  45  53 SE9       30.17F
MADISON        MOSUNNY   69  46  43 S13       30.12F
GREEN BAY      MOSUNNY   70  44  39 SW9       30.15F
EAU CLAIRE     NOT AVBL
BLACK RVR FLS  FAIR      71  42  34 S7        30.09F
MEDFORD        SUNNY     64  43  46 S8        30.12F
WAUSAU         SUNNY     68  40  35 S13       30.10F
WIS RAPIDS     SUNNY     70  34  26 S9        30.13F
MARSHFIELD     SUNNY     68  41  37 SE12      30.11F
RICE LAKE      SUNNY     70  47  44 S12       30.08S
$$

...NORTHEAST IOWA...


CITY           SKY/WX    TMP DP  RH WIND       PRES   REMARKS
DECORAH        MOSUNNY   68  52  56 SE10G21   30.08F
MASON CITY     MOSUNNY   72  55  55 S20G29    30.06F
CHARLES CITY   CLOUDY    68  54  60 S15G21    30.09S
OELWEIN        PTSUNNY   70  52  52 SE13G22   30.09F
$$

...ELSEWHERE IN IOWA...


CITY           SKY/WX    TMP DP  RH WIND       PRES   REMARKS
DES MOINES     CLOUDY    67  54  63 SE21      30.06F
IOWA CITY      MOSUNNY   71  53  52 MISG      30.11F
FORT DODGE     MOSUNNY   70  54  56 S15G23    30.05S
$$

...NORTHERN ILLINOIS...


CITY           SKY/WX    TMP DP  RH WIND       PRES   REMARKS
CHICAGO-OHARE  MOSUNNY   68  44  42 E10       30.14F
CHICAGO-MIDWAY MOSUNNY   67  44  43 E13       30.16F
MOLINE         MOSUNNY   71  50  47 SE8       30.11F
ROCKFORD       MOSUNNY   70  46  42 SE12G21   30.14F
PEORIA         SUNNY     72  50  45 E12       30.12F
$$

NOTE: "FAIR" INDICATES FEW OR NO CLOUDS BELOW 12,000 FEET WITH NO
SIGNIFICANT WEATHER AND/OR OBSTRUCTIONS TO VISIBILITY. WIND
SPEEDS ARE IN MILES-PER-HOUR.



USA.gov is the U.S. government's official web portal to all federal, state and local government web resources and services.